Location: Unspecified
(0.0000°N, 0.0000°E)
Time: 23:43:59
(UTC+00:00)

SRMSAT - Pass Details

Date: 19 July 2019
Orbit: 848 x 866 km, 20.0° (Epoch: 16 August)

Event Time Altitude Azimuth Distance (km) Brightness Sun altitude
Exits shadow 05:12:49 - 298° (WNW) 3,132 ? -12.5°
Reaches altitude 10° 05:14:41 10° 301° (WNW) 2,456 ? -12.0°
Maximum altitude 05:20:31 63° 21° (NNE) 938 ? -10.7°
Drops below altitude 10° 05:26:22 10° 102° (ESE) 2,460 ? -9.3°
Sets 05:28:57 0° 105° (ESE) 3,397 ? -8.7°
